sat.trackr.live / text

‹ back to catalog

STARLINK-31203

NORAD 58869 · 2024-019S

PAYLOAD ACTIVE UNKNOWN

§ Identity

Operator
Country
US
Launch date
2024-01-29
Launch site
AFETR
Launch vehicle
Mass (kg)
RCS (m²)

Purposes: comms

External: N2YO · Heavens-Above · Gunter

§ Orbital elements

Epoch: 2026-09-20T22:20:07.131840Z

Period
94.27 min
Inclination
43.0024°
Eccentricity
0.0000841
Mean motion
15.27575454 rev/d
Perigee alt
482.5 km
Apogee alt
483.6 km
Semi-major
6,861.2 km
B*
7.5737e-6
RAAN
222.6764°
Arg perigee
266.0864°
Mean anomaly
93.9892°
Rev number
14,898

§ Raw data

STARLINK-312031 58869U 24019S   26263.93063810 -.00000054  00000+0  75737-5 0  99942 58869  43.0024 222.6764 0000841 266.0864  93.9892 15.27575454148980

JSON: /api/v1/satellites/58869 · /tle

For live sub-satellite position, see the globe view (requires WebGL).

§ Visibility from observer

Set your observer location to see the next 7 days of passes ≥ 10°. The values pass through the URL so the page stays shareable.

No JS? Fill the form by hand. The geolocation button needs JavaScript.